840  
ASUS42 KFFC 202010  
RWRGA  
WEATHER ROUNDUP FOR GEORGIA  
NATIONAL WEATHER SERVICE PEACHTREE CITY GA  
400 PM EDT FRI APR 20 2018  
 
NOTE: "FAIR" INDICATES FEW OR NO CLOUDS BELOW 12,000 FEET WITH NO  
SIGNIFICANT WEATHER AND/OR S TO VISIBILITY
.  
 
* = USE WITH CAUTION. THE STATIONS MARKED WITH AN ASTERISK MAY NOT  
REPORT WEATHER SUCH AS PRECIPITATION, FOG, OR THUNDER AND ARE NOT  
QUALITY CONTROLLED BY NWS.  
 
THE REMARK "TC" DENOTES TEMPERATURE READING IN DEGREES CELSIUS.  
 
GAZ001>058-202100-  
NORTH GEORGIA  
 
CITY SKY/WX TMP DP RH WIND PRES REMARKS
 
ATLANTA FAIR 66 28 24 E10G18 30.29F  
ATHENS FAIR 67 30 25 CALM 30.30F  
CHAMBLEE FAIR 66 28 24 N8 30.29F  
PEACHTREE CITY FAIR 68 28 22 SE8 30.29F  
ROME FAIR 68 27 21 VRB7 30.29F  
WEST ATLANTA FAIR 67 29 24 N12 30.29F  
GAINESVILLE FAIR 64 26 23 SE8 30.31F  
CARTERSVILLE FAIR 66 26 22 VRB3 30.30F  
 
 
CITY SKY/WX TMP DP RH WIND PRES REMARKS
 
DALTON* FAIR 66 34 30 W3 30.33F  
LAWRENCEVILLE* FAIR 66 29 24 VRB6 30.29F  
MARIETTA MOSUNNY 65 26 22 SE6 30.29F  
KENNESAW* FAIR 66 27 23 VRB5 30.30F  
CANTON* FAIR 68 5 8 CALM 30.30F  
BLAIRSVILLE* FAIR 67 14 13 S3 30.28F  

 
 
GAZ059>098-102>109-202100-  
CENTRAL GEORGIA  
 
CITY SKY/WX TMP DP RH WIND PRES REMARKS
 
AUGUSTA-BUSH FAIR 70 30 22 NW8 30.28F  
AUGUSTA-DANIEL FAIR 68 29 23 VRB3 30.28F  
COLUMBUS FAIR 70 35 27 E12G18 30.25F  
MACON FAIR 69 32 25 E10 30.27F  
ROBINS AFB SUNNY 70 37 30 CALM 30.26F  
 
 
CITY SKY/WX TMP DP RH WIND PRES REMARKS
 
LAGRANGE* FAIR 69 35 28 CALM 30.27F  
SYLVANIA* FAIR 68 43 40 E9 30.28F  
MILLEDGEVILLE* FAIR 70 34 26 N5 30.28F  

 
 
GAZ099>101-110>166-202100-  
SOUTH GEORGIA  
 
CITY SKY/WX TMP DP RH WIND PRES REMARKS
 
SAVANNAH FAIR 68 39 34 N6 30.27F  
VALDOSTA FAIR 72 50 45 MISG 30.20F  
ALMA FAIR 71 42 35 N6 30.24F  
ST SIMONS CLOUDY 63 51 65 NE20G30 30.25F  
FT STEWART FAIR 69 42 38 E9 30.23F  
ALBANY FAIR 71 41 33 NE12 30.25F  
HUNTER AFB FAIR 67 40 37 NE8G22 30.25F  
MOODY AFB FAIR 71 48 43 N8 30.19F  
BRUNSWICK CLOUDY 63 48 59 NE15G21 30.26F  
 
 
CITY SKY/WX TMP DP RH WIND PRES REMARKS
 
BAINBRIDGE* N/A 75 50 41 NE7G17 30.20F  
MOULTRIE* FAIR 72 43 35 E9 30.22F  
VIDALIA* FAIR 70 41 35 E9G16 30.26F  
WAYCROSS* FAIR 70 41 34 E3 30.23F  
DOUGLAS* FAIR 70 41 35 E7 30.25F  

 
 
 
CLICK HERE TO GO TO PREVIOUS BULLETINS.

The Nexlab GA Page Main Text Page